STARLINK-1264 (45382 NORAD) Tracking and Keplerian Element Data

This shows tracking and keplerian element data for the satellite.

Feedback or suggestion? Click here.




ElementValue
Catalog45382
NameSTARLINK-1264
Epoch Orbit175
Epoch Day189.91668981
Epoch Year2020
RAAN82.6738
Inclination53.0017
Eccentricity0.00021
Argument of Perigee84.7444
Mean Anonmoly21.0228
Mean Motion15.05605003
Decay Rate-0.0002978
L11 45382U 20019Y 20189.91668981 -.00029780 00000-0 -20318-2 0 9996
L22 45382 53.0017 82.6738 0002100 84.7444 21.0228 15.05605003 1751

Live tracking and technical data element details for STARLINK-1264 (NORAD 45382). STARLINK-1264 can be tracked NOW for your location showing map with azimuth and elevation plus other details from your city location.

Track the satellite on the map from your city or location and see movement details for azimuth, elevation, latitude, longitude, range, height, and movement on the map or in text.







IsCatalogInMostPopularTable: catalog: 45382, numindb: 21
Update: records affected: 1



GetName: 45382 STARLINK-1264

Hit Count: updated at: Thu, 09 Jul 2020 00:47:05 GMT